Location: Budapest
(47.4979°N, 19.0402°E)
Time: 09:59:01
(UTC+02:00)

OTV 5 (USA 277) - Pass Details

Date: 10 October 2017
Orbit: 404 x 417 km, 43.0° (Epoch: 07 September)

Event Time Altitude Azimuth Distance (km) Brightness Sun altitude
Rises 19:33:14 0° 219° (SW) 2,346 ? -15.6°
Reaches altitude 10° 19:35:49 10° 199° (SSW) 1,486 ? -16.1°
Enters shadow 19:37:48 17° 163° (SSE) 1,133 ? -16.4°
